Location: Carabito
(9.8355°N, 67.9249°W)
Time: 03:23:24
(UTC+00:00)

CZ-4B R/B - Pass Details

Date: 20 August 2024
Orbit: 807 x 881 km, 99.0° (Epoch: 13 September)

Event Time Altitude Azimuth Distance (km) Brightness Sun altitude
Exits shadow 00:48:33 61° 6° (N) 992 3.5 -29.5°
Drops below altitude 10° 00:53:11 10° 351° (N) 2,527 6.0 -30.6°
Sets 00:55:34 0° 350° (N) 3,460 6.8 -31.1°
